Temperature
19 19 19 19 19 19 19 19 19 19 19 19 19 19 19 19 19 19 18 18 19 18 18 18 18 18 18 18 18 18 17 17 17 17 17 17 16 16 16 16 16 16 16
19 19 19 19 19 19 19 19 19 19 19 19 19 19 19 18 19 19 19 18 18 18 18 18 18 18 18 18 18 18 17 17 17 17 17 17 16 16 16 16 16 16 16
19 19 19 19 19 19 19 19 19 19 19 19 19 19 18 18 18 18 18 18 18 18 18 18 18 18 18 18 18 17 17 17 17 17 17 17 16 16 16 16 16 16 16
19 19 19 19 19 19 19 19 19 19 19 19 19 19 19 18 18 19 18 18 18 18 18 18 18 18 18 18 18 17 17 17 17 17 17 17 16 16 16 16 16 16 16
19 19 19 19 19 19 19 19 19 19 19 19 19 19 19 19 19 19 19 18 18 18 18 18 18 18 18 18 18 18 17 17 17 17 17 17 16 16 16 16 16 16 16
19 19 19 19 19 19 19 19 19 19 19 19 19 19 19 19 19 19 19 19 18 18 18 18 18 18 18 18 18 18 18 17 17 17 17 17 17 17 16 16 16 16 16
19 19 19 19 19 19 19 19 19 19 19 19 19 19 19 19 19 19 19 19 19 19 18 18 18 18 18 18 18 18 18 17 17 17 17 17 17 17 16 16 16 16 16
19 19 19 19 19 19 19 19 19 19 19 19 19 19 19 19 19 19 19 19 19 19 18 18 18 18 18 18 18 18 17 17 17 17 17 17 17 16 16 16 16 16 16
19 19 19 19 19 19 19 19 19 19 19 19 19 19 19 19 19 19 19 19 19 19 19 18 18 18 18 17 17 17 17 17 17 17 17 17 17 16 16 16 16 16 16
19 19 19 19 19 19 19 19 19 19 19 19 19 19 19 19 19 19 19 19 19 19 19 18 18 18 18 17 17 17 17 17 17 17 17 17 16 16 16 16 16 16 15
19 19 19 19 19 18 18 19 19 19 19 19 19 19 19 20 20 19 19 19 19 19 19 18 18 18 17 17 17 17 17 17 17 17 16 16 16 16 16 16 16 15 15
19 19 18 18 18 18 18 19 18 19 19 19 19 19 19 19 19 19 19 19 19 19 19 18 18 18 17 17 17 17 17 17 16 16 16 16 16 16 16 16 15 15 15
19 19 18 18 18 18 18 18 18 18 18 18 18 19 19 19 19 19 19 19 19 19 18 18 18 18 17 17 17 17 17 16 16 16 16 16 16 16 15 15 15 15 15
18 18 18 18 18 18 18 18 18 18 18 18 18 18 18 18 18 18 18 18 18 18 18 18 18 17 17 17 17 17 17 16 16 16 16 15 15 15 15 15 15 15 15
18 18 18 18 18 18 18 18 18 17 17 17 18 18 18 18 18 18 18 18 18 18 18 18 17 17 17 17 17 16 16 16 16 16 15 15 15 15 15 15 15 15 15
18 18 18 17 17 17 17 17 17 17 17 17 17 17 17 17 17 17 17 17 18 17 17 17 17 17 17 16 16 16 16 16 16 15 15 15 15 15 15 15 14 14 14
17 17 17 17 17 17 17 17 17 17 17 17 17 17 17 17 17 17 17 17 17 17 17 17 17 16 16 16 16 16 16 15 15 15 15 15 15 15 14 14 14 14 14
17 17 17 17 17 17 17 17 16 16 16 16 16 16 16 17 17 17 17 17 17 17 16 16 16 16 16 16 16 16 15 15 15 15 15 15 15 14 14 14 14 14 14
17 17 17 16 16 16 16 16 16 16 16 16 16 16 16 16 16 16 16 16 16 16 16 16 16 16 16 16 15 15 15 15 15 15 15 14 14 14 14 14 14 13 13
16 16 16 16 16 16 16 16 16 16 15 15 15 15 15 15 15 15 15 16 16 16 16 16 16 16 15 15 15 15 15 14 14 14 14 14 14 14 14 14 13 13 13
16 16 16 16 16 16 16 16 15 15 15 15 15 15 15 15 15 15 15 15 15 15 15 15 15 15 15 15 15 15 14 14 14 14 14 14 14 14 13 13 13 13 13
16 16 15 16 15 15 15 15 15 15 15 15 15 14 15 14 15 15 15 15 15 15 15 15 15 14 14 14 14 14 14 14 14 14 14 14 13 13 13 13 13 13 12
15 15 15 15 15 15 15 15 15 15 14 14 14 14 14 14 14 14 14 14 14 14 14 14 14 14 14 14 14 14 14 14 14 14 13 14 13 13 13 13 13 12 12
15 15 15 15 15 15 15 15 14 14 14 14 14 14 14 14 14 14 14 14 14 14 14 14 14 14 14 14 14 14 13 13 13 13 13 13 13 13 13 12 12 12 12
15 15 15 14 14 14 14 14 14 14 14 14 14 14 14 14 14 14 14 14 14 14 14 14 14 14 14 14 13 13 13 13 13 13 13 13 13 13 12 12 12 12 12
14 14 14 14 14 14 14 14 14 14 13 13 13 13 13 13 13 13 13 13 13 13 13 14 14 14 14 13 13 13 13 13 12 12 13 12 12 12 12 12 12 12 12
Wind_Speed
5 5 3 3 3 4 4 4 4 3 3 4 4 4 5 5 7 8 9 11 12 12 10 9 8 7 7 7 6 6 5 6 7 7 6 6 7 7 7 7 7 7 7
4 4 4 3 3 3 3 3 3 3 3 4 4 4 4 4 5 7 8 9 11 12 10 9 8 7 6 6 6 5 5 5 6 5 5 5 5 6 7 8 8 8 8
4 3 3 3 3 3 3 2 2 2 3 4 3 3 3 3 4 5 7 8 9 10 10 10 9 8 7 7 7 6 6 6 6 5 5 4 5 6 7 7 8 9 9
3 2 2 3 2 2 2 2 2 2 2 2 2 2 3 3 4 4 5 7 8 8 9 10 9 8 7 7 6 6 6 6 6 5 5 5 5 6 7 7 8 8 9
4 2 2 2 2 2 2 3 3 2 1 1 2 2 3 3 4 4 5 6 7 9 9 10 10 9 8 7 7 6 6 6 6 6 6 6 5 6 7 7 8 8 9
2 2 2 2 2 2 3 3 2 1 0 0 0 2 1 3 3 3 4 4 6 8 9 9 9 8 8 8 7 7 6 5 5 6 6 6 6 6 6 6 7 8 8
3 3 3 2 2 3 2 1 1 0 0 0 1 0 1 2 3 3 3 2 4 5 7 8 8 7 7 8 7 6 5 5 5 5 6 6 6 7 7 7 7 7 8
2 2 3 2 3 2 1 1 1 1 1 1 1 0 0 1 1 2 3 3 3 3 5 6 6 7 7 6 6 7 5 4 4 3 4 5 6 7 7 8 8 8 8
3 3 3 3 2 1 1 0 1 1 1 1 0 0 0 0 0 1 2 2 3 3 3 4 5 7 7 7 6 7 6 5 4 3 3 3 5 6 7 8 8 9 9
2 3 3 3 3 2 2 1 1 2 1 1 1 1 0 1 1 0 0 1 2 2 2 2 4 5 7 7 7 7 7 5 4 3 2 2 2 3 4 5 7 8 8
2 2 2 2 2 1 1 2 2 2 2 2 2 1 1 1 1 2 1 1 0 1 2 2 3 4 6 7 6 6 7 6 5 3 2 1 2 3 3 3 4 6 7
1 2 2 2 1 1 1 1 1 1 2 2 3 2 1 1 1 0 1 1 1 1 1 2 3 4 5 7 6 7 8 7 5 4 2 1 1 2 2 2 2 3 4
1 1 2 2 1 1 1 1 1 1 1 2 2 2 2 2 2 1 0 0 0 1 1 2 3 3 4 8 8 9 8 7 5 4 3 2 1 0 1 1 0 1 1
2 2 2 2 2 2 1 1 1 0 1 2 2 2 2 2 2 1 1 0 1 1 0 1 2 3 3 7 7 8 6 6 5 4 4 3 2 1 0 1 1 1 1
1 2 2 2 2 2 2 1 1 1 1 1 1 2 2 1 1 1 1 1 1 1 1 0 1 2 2 5 6 5 6 6 6 5 5 4 3 2 1 1 1 1 2
3 2 1 1 1 1 2 1 1 1 1 1 1 1 1 2 2 1 1 1 1 1 1 0 1 2 2 3 5 4 4 6 6 6 6 5 3 2 1 1 1 1 1
2 2 1 1 1 1 1 1 1 0 0 1 1 1 1 2 2 2 2 1 1 1 1 1 1 1 1 1 2 2 3 5 5 7 7 6 4 3 3 2 2 2 2
1 1 1 1 1 1 1 1 2 1 0 0 1 1 1 1 1 3 3 2 1 0 0 1 1 1 1 1 1 1 1 3 4 7 8 7 5 4 4 4 4 3 3
1 1 1 1 1 1 1 1 1 1 0 0 0 1 1 1 1 1 2 3 2 2 1 1 2 1 0 0 0 2 2 1 2 6 8 7 6 6 5 5 4 4 4
0 1 1 1 1 1 1 1 1 1 1 1 1 1 1 1 0 2 2 2 2 3 2 1 2 1 1 1 1 1 2 1 2 2 5 6 6 5 5 5 6 5 4
1 1 1 1 2 2 1 1 1 1 1 1 1 1 1 1 1 0 1 2 2 2 2 2 2 2 1 0 1 2 2 2 3 1 2 3 4 3 4 5 6 6 5
1 2 1 2 2 2 2 2 2 2 1 2 2 1 1 1 2 2 2 2 2 3 2 2 2 2 2 1 1 2 2 2 2 1 1 2 3 3 3 6 7 7 6
2 2 2 1 1 1 2 2 2 2 2 2 2 2 3 2 1 1 2 4 4 5 4 3 4 4 3 2 2 3 3 3 3 2 1 2 2 2 3 6 10 9 7
2 2 2 2 1 1 1 1 2 2 3 3 3 3 2 1 2 2 3 3 3 3 4 4 3 4 4 2 3 3 4 4 3 2 1 2 1 1 2 5 10 10 8
2 2 2 2 2 2 1 1 1 2 2 3 3 3 2 2 3 2 2 3 4 4 5 5 5 6 6 5 4 3 3 2 3 2 1 1 1 1 1 2 6 11 10
2 2 2 2 2 2 3 2 2 3 3 3 2 2 2 1 2 1 2 4 5 5 5 5 5 7 6 7 7 5 4 3 3 2 1 1 1 0 1 2 3 5 6
Wind_Direction
64 63 56 66 78 94 96 89 91 98 97 100 94 87 88 96 112 118 127 141 143 146 149 152 152 157 169 171 173 174 177 177 184 190 193 200 200 199 197 195 196 195 196
77 83 79 73 77 88 92 95 96 98 84 81 81 80 85 97 108 122 133 141 146 150 153 156 157 160 163 167 169 171 173 172 175 184 191 202 201 202 200 200 201 204 205
83 82 91 96 93 107 110 98 84 95 99 95 96 101 101 110 122 127 141 146 148 156 162 163 162 163 167 169 171 173 173 172 175 182 190 194 196 201 204 208 211 212 213
82 72 83 91 93 106 102 111 92 79 91 102 110 122 126 134 144 152 150 152 154 159 167 171 170 170 175 179 179 180 183 186 189 191 194 202 209 212 212 212 213 212 215
81 67 71 83 120 99 81 83 76 73 96 126 145 158 156 157 162 163 157 159 160 156 161 170 176 176 177 177 180 184 187 193 199 200 205 211 214 218 214 214 218 217 218
76 51 90 61 71 83 75 66 59 43 74 252 124 112 167 168 161 162 168 161 156 163 167 161 165 177 179 179 182 185 188 195 198 201 207 214 218 218 212 215 218 219 218
57 40 63 78 69 79 94 115 99 246 295 90 41 27 209 174 154 152 165 157 157 160 151 155 163 165 171 188 188 188 192 199 208 215 216 217 221 218 217 215 214 214 217
56 68 69 73 78 79 69 75 44 295 259 123 131 325 102 122 140 167 154 163 162 154 152 155 156 156 163 160 174 184 189 188 189 195 205 215 220 222 222 220 219 220 221
66 43 42 40 66 85 77 31 351 359 333 320 176 172 160 138 247 111 146 140 144 149 153 150 143 149 154 146 150 168 181 186 186 187 190 218 225 224 230 229 225 226 227
92 79 68 41 23 20 34 325 48 326 298 285 292 275 230 176 156 146 301 110 139 131 144 149 131 128 131 134 138 149 167 178 186 186 194 210 210 219 231 236 235 230 227
102 90 80 60 43 16 9 9 26 355 337 323 314 328 298 267 251 184 190 166 215 153 147 140 133 128 129 137 134 137 155 161 166 167 178 219 234 234 238 241 242 232 221
111 102 96 71 58 1 24 6 351 347 334 339 334 331 310 316 328 312 189 197 190 211 148 141 128 124 127 120 116 121 144 148 144 142 145 163 278 269 256 243 236 233 221
69 52 66 63 40 11 24 348 336 327 330 329 331 326 343 354 350 356 55 268 260 238 187 136 113 116 115 113 115 127 141 150 152 151 148 145 148 56 23 27 293 246 236
68 59 63 53 28 10 8 358 340 282 333 316 315 333 335 347 344 359 26 340 291 280 47 108 102 100 98 110 123 137 137 155 164 165 155 148 141 136 99 358 320 266 236
80 75 63 56 37 18 4 3 347 348 358 313 313 333 340 327 342 345 8 29 331 290 272 100 87 80 96 108 124 137 135 157 167 163 157 157 157 157 179 236 249 250 237
29 43 54 48 30 13 4 348 321 5 354 327 316 336 331 329 346 344 0 340 327 291 300 340 75 84 66 94 128 137 142 162 167 164 164 167 172 171 170 179 199 194 184
23 17 17 18 13 351 335 325 319 11 345 314 304 332 329 338 332 328 330 341 359 353 295 324 52 82 95 96 128 164 168 161 163 175 171 171 170 171 169 154 130 123 112
21 13 354 344 328 328 325 314 313 1 11 341 330 357 331 319 340 344 338 338 341 339 229 273 250 220 176 169 164 226 186 169 166 176 174 171 170 171 167 158 150 140 127
7 4 322 313 312 312 302 314 313 327 341 318 300 275 293 329 340 325 322 328 318 312 251 255 254 215 184 136 122 271 267 210 198 171 174 174 179 179 183 175 166 149 137
342 308 307 302 299 306 338 356 320 306 321 334 312 294 283 291 284 293 284 299 307 312 303 281 269 242 195 157 193 277 290 269 262 181 166 174 181 183 180 167 161 158 155
275 292 297 295 275 271 294 337 301 259 317 317 305 288 261 164 114 29 312 318 318 316 307 296 286 297 311 57 264 257 270 266 261 188 157 176 174 179 176 171 164 165 167
257 264 262 282 289 292 4 11 348 304 265 262 272 283 233 173 175 192 235 290 300 285 294 302 298 289 293 295 274 278 277 285 286 241 180 227 175 184 180 171 174 171 173
240 251 255 263 292 326 9 18 353 323 292 272 267 277 277 286 8 271 256 247 257 265 253 254 277 285 290 291 273 281 282 280 272 258 248 255 205 183 173 172 176 177 177
266 266 262 246 211 272 345 359 326 285 282 269 257 246 246 279 296 311 285 273 259 254 251 243 245 260 263 261 258 259 269 270 265 253 195 250 236 213 151 153 177 178 184
265 257 261 251 222 212 249 296 296 272 273 276 259 258 244 248 292 309 287 278 279 279 268 260 251 252 250 250 257 269 266 266 278 257 200 239 262 234 173 162 182 191 193
280 271 260 250 235 221 230 240 256 257 265 275 263 253 240 220 264 271 269 274 275 280 286 284 265 254 240 235 228 225 237 246 273 277 215 228 253 289 254 187 169 190 204
Height
1507 1507 1508 1508 1508 1509 1510 1511 1512 1514 1515 1516 1517 1519 1520 1521 1521 1522 1523 1525 1526 1526 1527 1528 1528 1529 1529 1530 1531 1532 1532 1533 1533 1534 1535 1535 1536 1537 1538 1538 1539 1541 1542
1509 1509 1510 1510 1511 1512 1513 1514 1515 1516 1517 1518 1519 1520 1521 1522 1522 1523 1524 1525 1526 1527 1527 1528 1528 1529 1529 1530 1530 1531 1532 1532 1533 1533 1534 1534 1535 1536 1536 1537 1538 1539 1540
1511 1511 1512 1512 1513 1514 1515 1516 1517 1518 1519 1520 1520 1521 1522 1523 1523 1524 1525 1525 1526 1527 1528 1528 1528 1529 1529 1530 1530 1530 1531 1531 1532 1532 1533 1533 1534 1534 1535 1535 1536 1537 1538
1513 1514 1514 1514 1515 1516 1517 1518 1519 1519 1520 1521 1521 1522 1523 1523 1524 1525 1525 1526 1526 1527 1527 1527 1528 1528 1529 1529 1529 1529 1530 1530 1530 1531 1531 1532 1532 1532 1533 1533 1534 1535 1536
1515 1515 1516 1516 1516 1517 1518 1519 1520 1520 1521 1521 1522 1523 1523 1524 1524 1525 1525 1526 1526 1526 1527 1527 1527 1528 1528 1528 1528 1528 1528 1529 1529 1529 1530 1530 1530 1531 1531 1531 1532 1533 1534
1516 1517 1517 1517 1518 1518 1519 1519 1520 1520 1521 1522 1523 1523 1523 1524 1524 1525 1525 1526 1526 1526 1526 1526 1526 1527 1527 1527 1527 1527 1527 1527 1527 1527 1528 1528 1528 1529 1529 1530 1530 1531 1531
1518 1518 1518 1518 1519 1519 1520 1521 1521 1521 1522 1522 1522 1522 1523 1523 1524 1524 1525 1526 1526 1526 1526 1526 1526 1526 1526 1526 1527 1527 1526 1526 1525 1525 1525 1526 1526 1526 1527 1527 1528 1528 1529
1519 1519 1519 1519 1519 1520 1520 1521 1521 1521 1522 1522 1522 1522 1523 1524 1524 1524 1524 1525 1525 1525 1526 1525 1525 1525 1525 1525 1525 1524 1525 1525 1524 1523 1523 1523 1523 1524 1524 1524 1525 1525 1526
1519 1519 1520 1520 1520 1520 1520 1521 1521 1521 1522 1522 1522 1523 1522 1523 1523 1524 1524 1524 1524 1524 1525 1525 1524 1524 1524 1524 1524 1523 1524 1523 1522 1522 1521 1521 1521 1521 1521 1521 1522 1522 1523
1519 1519 1519 1520 1520 1520 1520 1520 1521 1521 1521 1521 1521 1522 1522 1522 1522 1523 1524 1523 1523 1523 1524 1524 1524 1524 1523 1523 1523 1523 1522 1521 1521 1520 1520 1519 1519 1519 1518 1519 1519 1519 1520
1520 1519 1519 1519 1519 1519 1520 1520 1520 1520 1520 1520 1521 1521 1521 1521 1521 1522 1522 1522 1522 1522 1522 1523 1523 1522 1522 1522 1521 1521 1520 1520 1519 1518 1518 1517 1517 1517 1516 1516 1516 1516 1517
1519 1519 1519 1518 1518 1518 1518 1518 1518 1519 1519 1519 1519 1520 1520 1520 1520 1520 1520 1520 1521 1521 1521 1521 1521 1521 1521 1521 1520 1520 1519 1518 1518 1517 1516 1516 1515 1515 1514 1514 1514 1514 1514
1518 1518 1518 1517 1517 1517 1517 1517 1517 1517 1517 1518 1518 1518 1518 1519 1519 1519 1519 1519 1520 1520 1520 1520 1520 1520 1520 1519 1519 1518 1518 1517 1516 1516 1515 1514 1513 1513 1512 1512 1511 1511 1511
1518 1517 1517 1516 1516 1516 1516 1516 1515 1516 1516 1516 1516 1517 1517 1517 1518 1518 1518 1518 1519 1519 1519 1519 1519 1518 1517 1517 1517 1516 1516 1515 1515 1514 1513 1512 1512 1511 1510 1510 1509 1509 1509
1517 1516 1516 1515 1515 1514 1514 1514 1514 1514 1514 1514 1515 1515 1515 1515 1516 1517 1517 1517 1518 1518 1518 1518 1517 1517 1516 1516 1515 1515 1514 1514 1513 1513 1512 1511 1510 1509 1508 1508 1507 1507 1507
1515 1515 1514 1514 1513 1513 1513 1513 1512 1513 1513 1513 1513 1513 1514 1514 1514 1515 1516 1516 1516 1516 1516 1516 1516 1516 1515 1515 1514 1514 1513 1512 1512 1511 1510 1509 1509 1508 1507 1506 1506 1505 1505
1514 1513 1513 1512 1512 1511 1511 1511 1511 1511 1511 1511 1511 1512 1512 1512 1513 1513 1514 1514 1514 1515 1514 1515 1515 1514 1514 1514 1513 1513 1512 1511 1510 1509 1509 1508 1507 1506 1505 1504 1504 1504 1503
1512 1511 1511 1511 1510 1510 1510 1510 1510 1510 1509 1509 1509 1510 1510 1510 1511 1511 1512 1512 1512 1513 1513 1513 1513 1513 1513 1512 1511 1511 1510 1510 1509 1508 1507 1507 1506 1505 1504 1503 1502 1502 1502
1511 1510 1510 1509 1509 1509 1508 1508 1508 1508 1508 1507 1507 1507 1508 1508 1508 1509 1509 1510 1510 1511 1511 1511 1511 1511 1510 1510 1510 1509 1509 1508 1507 1506 1506 1505 1504 1503 1502 1502 1501 1501 1500
1509 1509 1508 1508 1508 1507 1507 1506 1506 1506 1506 1506 1506 1506 1506 1506 1506 1506 1507 1507 1508 1508 1508 1509 1509 1508 1508 1508 1508 1507 1507 1506 1506 1505 1504 1503 1503 1502 1501 1500 1500 1499 1499
1508 1508 1507 1506 1506 1506 1505 1505 1504 1504 1503 1503 1503 1503 1503 1503 1503 1503 1504 1505 1505 1506 1506 1507 1507 1506 1506 1506 1505 1505 1504 1504 1504 1503 1502 1501 1501 1500 1499 1499 1498 1498 1497
1506 1506 1505 1505 1504 1504 1504 1503 1502 1502 1501 1501 1501 1501 1501 1501 1501 1501 1502 1502 1503 1503 1503 1504 1504 1504 1503 1503 1503 1502 1502 1502 1501 1501 1500 1500 1499 1498 1498 1497 1496 1496 1496
1504 1504 1503 1502 1502 1502 1502 1501 1501 1500 1499 1499 1499 1499 1499 1499 1499 1499 1499 1500 1500 1500 1501 1501 1501 1501 1501 1500 1500 1499 1499 1499 1498 1498 1498 1497 1497 1496 1496 1495 1495 1494 1494
1502 1502 1501 1501 1500 1499 1499 1499 1498 1498 1497 1497 1497 1497 1497 1497 1496 1496 1496 1497 1497 1497 1498 1498 1498 1498 1498 1497 1497 1497 1496 1496 1496 1496 1495 1495 1495 1494 1494 1493 1493 1493 1492
1499 1499 1499 1498 1497 1497 1497 1496 1496 1495 1495 1495 1495 1495 1494 1494 1494 1494 1494 1493 1493 1493 1494 1494 1493 1493 1493 1493 1493 1493 1493 1493 1492 1492 1492 1492 1492 1492 1491 1491 1490 1490 1490
1496 1496 1496 1495 1495 1494 1494 1494 1494 1493 1492 1492 1492 1492 1491 1491 1490 1490 1490 1490 1489 1489 1489 1489 1489 1489 1489 1489 1489 1489 1490 1489 1490 1489 1489 1489 1489 1489 1489 1488 1488 1488 1487